This is the latest recevied weather packets stored in our database for station/object W1HVD. If no packets are shown the sender has not sent any weather packets the latest 10 day(s).
| Time | Temp. | Humidity | Pressure | Rain* | Wind** | Luminosity | Snow |
|---|---|---|---|---|---|---|---|
| 1778256997 | 16.67° C | 34% | 1009 hPa | 0 mm | - | 800 W/m² | - |
| 1778256695 | 16.11° C | 36% | 1009.2 hPa | 0 mm | - | 821 W/m² | - |
| 1778256393 | 16.67° C | 33% | 1009.2 hPa | 0 mm | - | 771 W/m² | - |
| 1778256091 | 16.11° C | 38% | 1009.3 hPa | 0 mm | - | 762 W/m² | - |
| 1778255787 | 16.11° C | 34% | 1009.3 hPa | 0 mm | - | 777 W/m² | - |
| 1778255484 | 15.56° C | 35% | 1009.6 hPa | 0 mm | - | 786 W/m² | - |
| 1778255181 | 16.11° C | 36% | 1009.4 hPa | 0 mm | - | 772 W/m² | - |
| 1778254878 | 15.56° C | 38% | 1009.6 hPa | 0 mm | - | 799 W/m² | - |
| 1778254575 | 16.11° C | 36% | 1009.7 hPa | 0 mm | - | 807 W/m² | - |
| 1778254272 | 15.56° C | 37% | 1009.6 hPa | 0 mm | - | 786 W/m² | - |
| 1778253969 | 16.11° C | 32% | 1009.6 hPa | 0 mm | - | 759 W/m² | - |
| 1778253664 | 15.56° C | 34% | 1009.7 hPa | 0 mm | - | 734 W/m² | - |
| 1778253361 | 15.56° C | 38% | 1009.6 hPa | 0 mm | - | 717 W/m² | - |
| 1778253058 | 15.56° C | 33% | 1009.5 hPa | 0 mm | - | 719 W/m² | - |
| 1778252755 | 15.56° C | 33% | 1009.8 hPa | 0 mm | - | 711 W/m² | - |
| 1778252450 | 15° C | 34% | 1009.9 hPa | 0 mm | - | 712 W/m² | - |
| 1778252147 | 14.44° C | 34% | 1010 hPa | 0 mm | - | 694 W/m² | - |
| 1778251844 | 14.44° C | 36% | 1009.9 hPa | 0 mm | - | 694 W/m² | - |
| 1778251542 | 15.56° C | 37% | 1009.8 hPa | 0 mm | - | 701 W/m² | - |
| 1778251239 | 15° C | 36% | 1010 hPa | 0 mm | - | 664 W/m² | - |
| 1778250936 | 14.44° C | 35% | 1010 hPa | 0 mm | - | 668 W/m² | - |
| 1778250633 | 15° C | 38% | 1010 hPa | 0 mm | - | 664 W/m² | - |
| 1778250330 | 15° C | 35% | 1010 hPa | 0 mm | - | 644 W/m² | - |
| 1778250026 | 15° C | 37% | 1010 hPa | 0 mm | - | 634 W/m² | - |
| 1778249722 | 14.44° C | 40% | 1009.9 hPa | 0 mm | - | 627 W/m² | - |
* Rain latest hour (hover to see other rain measurements)
** Current wind speed in m/s (hover to see current wind gust speed)